WZZ4D EPGD-EKBI

Flight info

Callsign WZZ4D
Flight time 1h 3m
Altitude 30000
Route DEXIR Y100 MALOX L621 LUSID/N0451F360 DCT LOKSA
Aircraft A321/M-SDE1E2E3FGIJ1J4RWXY/LB1

Departure

Time 2025-10-10 08:41
Airport Gdańsk Lech Wałęsa Airport (EPGD)

Arrival

Time 2025-10-10 09:45
Airport Billund Airport (EKBI)
Time Latitude Longitude Altitude Speed Heading
2025-10-10 08:12 54.38203 18.46251 460 ft 0 kts 23°
2025-10-10 08:29 54.38185 18.46238 457 ft 3 kts 32°
2025-10-10 08:30 54.38176 18.46171 457 ft 0 kts 112°
2025-10-10 08:33 54.38165 18.46218 458 ft 5 kts 113°
2025-10-10 08:34 54.38129 18.46360 460 ft 7 kts 113°
2025-10-10 08:34 54.38079 18.46564 457 ft 7 kts 112°
2025-10-10 08:35 54.38012 18.46599 460 ft 7 kts 202°
2025-10-10 08:35 54.37925 18.46668 459 ft 10 kts 114°
2025-10-10 08:36 54.37863 18.46915 457 ft 13 kts 113°
2025-10-10 08:36 54.37771 18.47285 460 ft 22 kts 112°
2025-10-10 08:37 54.37648 18.47784 467 ft 22 kts 113°
2025-10-10 08:37 54.37592 18.48009 472 ft 20 kts 113°
2025-10-10 08:38 54.37449 18.48589 481 ft 12 kts 113°
2025-10-10 08:38 54.37372 18.48637 491 ft 7 kts 200°
2025-10-10 08:39 54.37292 18.48559 486 ft 8 kts 241°
2025-10-10 08:39 54.37510 18.47626 465 ft 107 kts 293°
2025-10-10 08:40 54.37740 18.46696 459 ft 147 kts 293°
2025-10-10 08:40 54.38970 18.41537 2384 ft 160 kts 295°
2025-10-10 08:41 54.39396 18.39783 3026 ft 158 kts 296°
2025-10-10 08:41 54.40339 18.36037 3772 ft 191 kts 296°
2025-10-10 08:42 54.42020 18.29272 5747 ft 209 kts 296°
2025-10-10 08:42 54.43164 18.24601 7231 ft 215 kts 296°
2025-10-10 08:43 54.42961 18.19303 8289 ft 261 kts 251°
2025-10-10 08:43 54.41336 18.13438 9549 ft 277 kts 253°
2025-10-10 08:44 54.39672 18.07266 10503 ft 303 kts 253°
2025-10-10 08:44 54.38759 18.03864 10731 ft 323 kts 253°
2025-10-10 08:45 54.36812 17.96730 12019 ft 334 kts 253°
2025-10-10 08:45 54.34808 17.89450 13452 ft 341 kts 253°
2025-10-10 08:46 54.31710 17.78222 15276 ft 354 kts 253°
2025-10-10 08:46 54.29589 17.70570 16520 ft 362 kts 254°
2025-10-10 08:47 54.27403 17.62709 17763 ft 370 kts 254°
2025-10-10 08:47 54.25168 17.54689 18919 ft 378 kts 254°
2025-10-10 08:48 54.23094 17.46433 19986 ft 373 kts 264°
2025-10-10 08:48 54.22647 17.42130 20542 ft 364 kts 275°
2025-10-10 08:49 54.22838 17.33568 21682 ft 362 kts 282°
2025-10-10 08:49 54.23164 17.24910 22818 ft 368 kts 282°
2025-10-10 08:50 54.23636 17.11662 24244 ft 377 kts 282°
2025-10-10 08:50 54.23941 17.02656 25108 ft 382 kts 282°
2025-10-10 08:52 54.30311 16.74713 27984 ft 366 kts 313°
2025-10-10 08:54 54.44053 16.43020 30182 ft 350 kts 313°
2025-10-10 08:56 54.54161 16.19517 30187 ft 351 kts 313°
2025-10-10 08:58 54.67166 15.88873 30185 ft 352 kts 313°
2025-10-10 09:00 54.77207 15.64881 30240 ft 352 kts 312°
2025-10-10 09:03 54.91414 15.29456 30740 ft 388 kts 303°
2025-10-10 09:04 54.97116 14.97526 33607 ft 393 kts 296°
2025-10-10 09:06 55.03177 14.61200 36148 ft 390 kts 294°
2025-10-10 09:08 55.09108 14.24782 36205 ft 391 kts 294°
2025-10-10 09:10 55.14959 13.88150 36233 ft 393 kts 293°
2025-10-10 09:12 55.20711 13.51242 36235 ft 394 kts 292°
2025-10-10 09:14 55.26376 13.14119 36210 ft 395 kts 292°
2025-10-10 09:16 55.31952 12.76784 36228 ft 399 kts 291°
2025-10-10 09:18 55.37463 12.38885 33622 ft 394 kts 292°
2025-10-10 09:20 55.42574 12.02944 29558 ft 375 kts 292°
2025-10-10 09:22 55.47444 11.67961 25453 ft 362 kts 290°
2025-10-10 09:23 55.48614 11.59387 24531 ft 361 kts 290°
2025-10-10 09:23 55.49788 11.50785 23584 ft 360 kts 289°
2025-10-10 09:24 55.50951 11.42219 22518 ft 358 kts 289°
2025-10-10 09:24 55.52104 11.33695 21500 ft 355 kts 289°
2025-10-10 09:25 55.53221 11.25293 20629 ft 348 kts 289°
2025-10-10 09:26 55.54803 11.13246 19595 ft 319 kts 290°
2025-10-10 09:26 55.55295 11.09500 19264 ft 309 kts 290°
2025-10-10 09:26 55.56265 11.02207 18520 ft 302 kts 290°
2025-10-10 09:27 55.57208 10.95098 17681 ft 296 kts 290°
2025-10-10 09:27 55.58129 10.88063 16857 ft 292 kts 290°
2025-10-10 09:28 55.59031 10.81132 16054 ft 287 kts 290°
2025-10-10 09:28 55.59916 10.74296 15320 ft 283 kts 290°
2025-10-10 09:29 55.60784 10.67539 14606 ft 280 kts 290°
2025-10-10 09:30 55.62061 10.57539 13593 ft 276 kts 289°
2025-10-10 09:30 55.62482 10.54232 13265 ft 276 kts 289°
2025-10-10 09:30 55.63321 10.47618 12595 ft 275 kts 289°
2025-10-10 09:31 55.64148 10.41073 11964 ft 269 kts 289°
2025-10-10 09:31 55.64951 10.34707 11366 ft 262 kts 289°
2025-10-10 09:32 55.65737 10.28438 10787 ft 261 kts 289°
2025-10-10 09:32 55.66518 10.22150 10213 ft 261 kts 288°
2025-10-10 09:33 55.67161 10.16945 9685 ft 259 kts 288°
2025-10-10 09:34 55.68298 10.07673 8740 ft 254 kts 287°
2025-10-10 09:34 55.68673 10.04632 8433 ft 252 kts 287°
2025-10-10 09:34 55.69417 9.98589 7823 ft 250 kts 287°
2025-10-10 09:35 55.70146 9.92617 7236 ft 246 kts 287°
2025-10-10 09:35 55.70862 9.86722 6646 ft 243 kts 288°
2025-10-10 09:36 55.71570 9.80911 6024 ft 239 kts 287°
2025-10-10 09:36 55.72266 9.75177 5442 ft 236 kts 287°
2025-10-10 09:37 55.72607 9.72335 5186 ft 234 kts 287°
2025-10-10 09:37 55.73600 9.63943 4408 ft 227 kts 287°
2025-10-10 09:38 55.74233 9.58559 3912 ft 219 kts 287°
2025-10-10 09:38 55.74828 9.53492 3386 ft 201 kts 287°
2025-10-10 09:39 55.74993 9.48613 3021 ft 192 kts 275°
2025-10-10 09:39 55.74876 9.43986 3001 ft 177 kts 274°
2025-10-10 09:40 55.74762 9.40080 2725 ft 145 kts 276°
2025-10-10 09:40 55.74714 9.38331 2540 ft 139 kts 276°
2025-10-10 09:41 55.74619 9.34953 2210 ft 135 kts 275°
2025-10-10 09:41 55.74474 9.29938 1627 ft 136 kts 273°
2025-10-10 09:42 55.74374 9.26622 1202 ft 136 kts 272°
2025-10-10 09:42 55.74274 9.23257 843 ft 136 kts 268°
2025-10-10 09:43 55.74179 9.19933 480 ft 134 kts 267°
2025-10-10 09:43 55.74081 9.16688 219 ft 117 kts 267°
2025-10-10 09:44 55.74044 9.15473 216 ft 83 kts 266°
2025-10-10 09:44 55.74058 9.14502 216 ft 8 kts 352°
2025-10-10 09:45 55.74128 9.14491 219 ft 2 kts 356°
2025-10-10 09:45 55.74192 9.14484 216 ft 7 kts 356°
2025-10-10 09:46 55.74314 9.14473 222 ft 11 kts 357°
2025-10-10 09:46 55.74425 9.14485 222 ft 8 kts 36°
2025-10-10 09:47 55.74447 9.14722 221 ft 12 kts 87°
2025-10-10 09:47 55.74455 9.14987 223 ft 2 kts 87°
2025-10-10 09:48 55.74478 9.15017 223 ft 2 kts
2025-10-10 09:48 55.74522 9.15014 216 ft 3 kts 356°
2025-10-10 09:49 55.74536 9.15012 224 ft 0 kts 357°